UOSAT 2 (UO-11) (14781 NORAD) Tracking and Keplerian Element Data

This shows tracking and keplerian element data for the satellite.

Feedback or suggestion? Click here.




ElementValue
Catalog14781
NameUOSAT 2 (UO-11)
Epoch Orbit92812
Epoch Day144.46231794
Epoch Year2020
RAAN157.679
Inclination97.591
Eccentricity0.0006955
Argument of Perigee286.8439
Mean Anonmoly73.2013
Mean Motion14.83166871
Decay Rate5.4E-07
L11 14781U 84021B 20144.46231794 .00000054 00000-0 12677-4 0 9999
L22 14781 97.5910 157.6790 0006955 286.8439 73.2013 14.83166871928127

Live tracking and technical data element details for UOSAT 2 (UO-11) (NORAD 14781). UOSAT 2 (UO-11) can be tracked NOW for your location showing map with azimuth and elevation plus other details from your city location.

Track the satellite on the map from your city or location and see movement details for azimuth, elevation, latitude, longitude, range, height, and movement on the map or in text.







IsCatalogInMostPopularTable: catalog: 14781, numindb: 434
Update: records affected: 1



GetName: 14781 UOSAT 2 (UO-11)

Hit Count: updated at: Mon, 25 May 2020 08:52:51 GMT